Simultaneous Nadir Overpasses (SNOs) Predictions

Prediction of SNOs between AQUA and NPP Satellite Orbit:

Table of predicted SNOs for the next 14.0 days since TLE Epoch: 5/28/2022
Index Date (AQUA) Time (AQUA) Lat,Lon (AQUA) SZA (AQUA ) Date (NPP) Time (NPP) Lat,Lon (NPP) SZA (NPP ) Distance(km) Time Diff (sec)
1 05/30/2022 08:09:17 -77.47, 122.68 106.18 05/30/2022 08:08:24 -77.46, 122.60 106.11 2.19 53
2 05/30/2022 08:58:25 78.23, -66.24 72.84 05/30/2022 08:58:49 78.24, -66.17 72.81 1.59 24
3 06/02/2022 00:25:07 -77.97,-119.14 107.16 06/02/2022 00:25:04 -77.96,-119.19 107.14 1.20 3
4 06/02/2022 01:13:47 79.79, 59.31 70.27 06/02/2022 01:15:01 79.68, 59.59 70.20 13.61 74
5 06/04/2022 15:51:44 77.81,-171.49 72.76 06/04/2022 15:51:14 77.81,-171.50 72.78 0.18 30
6 06/04/2022 16:41:00 -78.29, -1.57 107.89 06/04/2022 16:41:48 -78.28, -1.69 107.90 2.94 48
7 06/07/2022 07:18:26 -77.48, 135.49 107.09 06/07/2022 07:17:30 -77.47, 135.39 107.02 2.47 56
8 06/07/2022 08:07:33 78.28, -53.23 71.88 06/07/2022 08:07:54 78.29, -53.19 71.85 1.07 21
9 06/09/2022 23:34:09 -78.16,-105.47 108.17 06/09/2022 23:34:04 -78.16,-105.39 108.18 1.88 5



Historial Predications of SNOs between AQUA and NPP
